CZ-3C DEB, 40198

Orbit data source: Space-Track

CZ-3C DEB, 40198 is space debris in HEO originally from a launch on Fri, 24 Feb 2012 UTC launched from the Xichang Space Center, China (XSC). Debris objects in space refer to the collection of defunct objects orbiting the Earth. Examples of debris include non-operational satellites, rocket bodies, and fragments generated from explosions, collisions, or faulty payload assembly.

Loading next visibility...
Identifier
40198, 2012-008H
Orbit
HEO
Country
Flag of CNCN / PRC
Related business
Manufacturer
CALT
Mission
Spacecraft
Bus & Motor
Unknown
Mass
Unknown
Launch date (UTC)
2012-02-24 (14 years ago)
Launch vehicle
Unknown
Launch site
Xichang Space Center, China (XSC)
Object type
Payload
Rocket body
Debris
Shape & HBR
Unknown shape, 0.3 m
Radar Cross Section
Medium (>0.1 m² and <1 m²)

Expand to show TLE details & history
Last TLE update: 5 days ago

TLE from 5 days ago
0 CZ-3C DEB
1 40198U 12008H   26172.91034322  .00000054  00000-0  21124-2 0  9996
2 40198  19.8393   5.5240 7257955 273.5639  13.6324  2.18852396 99717
Epoch: 2026-06-21T21:50Z
TLE epoch observation values (Epoch: 2026-06-21T21:50:53.654Z)
Latitude
-0.00064°
Longitude
127.699°
Altitude
4,946.946 km
Speed
7.381 km/s
True Right ascension
00h 22m 06s
True Declination
0° 00' 02"
Sunlit
Object was in daylight at epoch
Visualization orbit readout
Latitude
Unknown
Longitude
Unknown
Altitude
Unknown
Speed
Unknown
Apparent Right ascension
Unknown
Apparent Declination
Unknown
Sunlit
N/A
Visualization observer readout
Local Sidereal Time
18:46:19
Azimuth
Unknown
Elevation
Unknown
Doppler factor
Unknown
Orbital elements
Apogee altitude
36,876.696 km
Perigee altitude
494.444 km
Semi-major axis
25,063.707 km
Eccentricity
0.7258
Inclination
19.8393°
RAAN
5.524°
Arg. of periapsis
273.5639°
True anomaly
86.04608°
Mean anomaly
13.6324°
Eccentric anomaly
40.81089°
Mean motion
0.54698 °/min
Orbital period
658.15 mins
BSTAR
0.0021124
Loading maneuver chart data...
Computing Atmospheric mass density...
Loading historical data...
Loading historical data...
Loading historical data...
Loading historical data...
Loading historical data...
Loading historical data...
Loading historical data...

Documentation

Showing up to 5 results
|